This is the latest recevied weather packets stored in our database for station/object KY4EF. If no packets are shown the sender has not sent any weather packets the latest 10 day(s).
| Time | Temp. | Humidity | Pressure | Rain* | Wind** | Luminosity | Snow |
|---|---|---|---|---|---|---|---|
| 1777748641 | 18.33° C | 31% | 1011.5 hPa | 0 mm | - | 729 W/m² | - |
| 1777747425 | 20° C | 34% | 1011.6 hPa | 0 mm | - | 763 W/m² | - |
| 1777747122 | 20.56° C | 31% | 1011.6 hPa | 0 mm | - | 743 W/m² | - |
| 1777746818 | 19.44° C | 35% | 1011.7 hPa | 0 mm | - | 729 W/m² | - |
| 1777744694 | 17.78° C | 37% | 1011.9 hPa | 0 mm | - | 782 W/m² | - |
| 1777741649 | 17.78° C | 40% | 1012.2 hPa | 0 mm | - | 738 W/m² | - |
| 1777741041 | 17.22° C | 39% | 1011.9 hPa | 0 mm | - | 800 W/m² | - |
| 1777739828 | 16.11° C | 42% | 1012.4 hPa | 0 mm | - | 655 W/m² | - |
| 1777739525 | 16.67° C | 43% | 1012 hPa | 0 mm | - | 473 W/m² | - |
| 1777739221 | 16.67° C | 43% | 1012.5 hPa | 0 mm | - | 374 W/m² | - |
| 1777738918 | 15.56° C | 46% | 1012.6 hPa | 0 mm | - | 750 W/m² | - |
| 1777738610 | 16.11° C | 48% | 1012.7 hPa | 0 mm | - | 825 W/m² | - |
| 1777738307 | 16.67° C | 46% | 1012.7 hPa | 0 mm | - | 366 W/m² | - |
| 1777738005 | 16.67° C | 46% | 1012.4 hPa | 0 mm | - | 444 W/m² | - |
| 1777736166 | 18.33° C | 47% | 1012.4 hPa | 0 mm | - | 707 W/m² | - |
| 1777735863 | 17.22° C | 52% | 1012.3 hPa | 0 mm | - | 680 W/m² | - |
| 1777735561 | 17.78° C | 48% | 1012.5 hPa | 0 mm | - | 674 W/m² | - |
| 1777735258 | 18.33° C | 49% | 1012.3 hPa | 0 mm | - | 300 W/m² | - |
| 1777734954 | 18.89° C | 49% | 1012.3 hPa | 0 mm | - | 200 W/m² | - |
| 1777734652 | 16.11° C | 55% | 1012.3 hPa | 0 mm | - | 643 W/m² | - |
| 1777734349 | 16.11° C | 56% | 1012.3 hPa | 0 mm | - | 597 W/m² | - |
| 1777734045 | 15.56° C | 55% | 1012.2 hPa | 0 mm | - | 585 W/m² | - |
| 1777733742 | 15.56° C | 56% | 1012.3 hPa | 0 mm | - | 526 W/m² | - |
| 1777733439 | 15.56° C | 58% | 1012.4 hPa | 0 mm | - | 539 W/m² | - |
| 1777733135 | 16.67° C | 54% | 1012.4 hPa | 0 mm | - | 534 W/m² | - |
* Rain latest hour (hover to see other rain measurements)
** Current wind speed in m/s (hover to see current wind gust speed)